Location: Columbus
(29.5618°N, 96.6770°W)
Time: 23:57:46
(UTC-06:00)

Daily predictions for brighter satellites

Satellite Brightness Start Highest point End
(mag) Time Altitude Azimuth Time Altitude Azimuth Time Altitude Azimuth
Orbus 7S 4.3 17:46:07 10° SW 17:48:23 34° SSE 17:51:38 10° E
COSMOS 2406 4.5 17:44:16 10° NNW 17:49:44 48° WSW 17:55:09 10° S
Sich 1 Rocket 4.0 17:47:15 10° N 17:51:27 41° E 17:55:40 10° SSE
Cosmos 1763 Rocket 3.4 17:47:48 10° NNW 17:52:59 80° ENE 17:58:03 10° SSE
AQUARIUS 4.2 17:49:58 10° SSE 17:54:22 58° ENE 17:58:47 10° N
Meteor 1-10 Rocket 4.5 17:50:29 10° SSE 17:55:54 50° E 18:01:27 10° NNE
Cosmos 1833 Rocket 3.5 17:52:53 10° N 17:57:44 29° ENE 18:02:32 10° ESE
CORIOLIS 4.2 17:55:15 10° SSE 18:00:35 60° ENE 18:05:57 10° N
Cosmos 2297 3.8 17:56:02 10° SSW 18:01:44 88° WNW 18:07:29 10° NNE
MTI 4.1 17:58:58 10° NNE 18:02:04 44° E 18:05:10 10° S
Cosmos 2278 Rocket 4.0 17:59:12 10° SW 18:04:08 30° WNW 18:09:06 10° N
USA 116 3.7 18:03:25 10° N 18:07:31 86° WNW 18:11:06 10° SSW
ALOS 3.5 18:04:18 10° ESE 18:07:36 19° ENE 18:10:54 10° NNE
Cosmos 1782 Rocket 3.8 18:05:37 10° N 18:09:48 45° E 18:13:59 10° SSE
YAOGAN 1 2.9 18:05:47 10° SE 18:09:52 43° ENE 18:13:58 10° N
Cosmos 405 4.5 18:08:16 10° NE 18:10:42 17° ENE 18:13:08 10° ESE
SL-27 R/B 2.2 18:08:51 10° N 18:12:11 68° ENE 18:15:33 10° SSE
Cosmos 540 Rocket 3.8 18:08:38 10° N 18:13:31 42° ENE 18:18:21 10° SE
SMAP 3.2 18:09:09 10° S 18:13:47 80° WSW 18:18:26 10° NNW
Tiangong 1 1.4 18:11:27 10° WSW 18:13:57 41° NNW 18:15:53 14° NE
Cosmos 968 Rocket 3.9 18:09:50 10° S 18:14:40 43° ESE 18:19:34 10° NNE
Meteor 1-28 Rocket 4.1 18:12:47 10° N 18:16:22 49° WNW 18:19:57 10° SSW
COSMO-SKYMED 1 2.6 18:12:51 10° NNE 18:17:09 62° E 18:21:26 10° S
Cosmos 1606 3.4 18:14:31 10° SSW 18:18:12 55° W 18:21:55 10° N
Cosmos 1441 Rocket 3.5 18:15:35 10° S 18:19:23 47° E 18:23:10 10° NNE
Ariane Rocket 3.5 18:15:05 10° S 18:20:06 63° WSW 18:25:09 10° NNW
USA 234 3.3 18:14:54 10° NE 18:21:27 76° SE 18:27:58 10° SW
Cosmos 1891 Rocket 4.4 18:15:33 10° S 18:21:40 67° E 18:27:42 10° NNE
CZ-4C R/B 3.8 18:22:08 10° N 18:28:07 26° NE 18:32:49 15° E
IRS-1A Rocket 4.3 18:23:45 10° SSE 18:29:35 88° ENE 18:35:21 10° NNW
Cosmos 1484 Rocket 4.4 18:26:46 10° SSW 18:30:20 38° W 18:34:00 10° NNW
Cosmos 841 Rocket 4.2 18:25:15 10° NNW 18:30:25 59° WSW 18:35:32 10° S
METEOR-M 4.1 18:25:41 10° SSE 18:30:57 65° ENE 18:36:14 10° N
Meteor 1-11 Rocket 4.2 18:27:45 10° N 18:33:07 38° ENE 18:38:19 10° SE
Cosmos 2221 Rocket 4.3 18:31:16 10° SSW 18:35:35 55° W 18:39:55 10° N
Cosmos 836 Rocket 4.4 18:31:50 10° N 18:37:05 72° ENE 18:42:21 10° SSE
Centaur D AC-29 2.8 18:31:34 10° W 18:37:16 34° SSW 18:40:25 10° SE
EO 1 Del DPAF 3.5 18:34:34 10° N 18:38:22 68° WNW 18:42:09 10° SSW
ERS-2 2.0 18:35:18 10° SSE 18:38:58 78° ENE 18:42:38 10° N
CZ-4 R/B 2.7 18:38:49 10° S 18:42:29 40° W 18:46:07 10° NNW
DMSP B5D1-3 4.4 18:37:21 10° NNE 18:42:29 69° ESE 18:47:35 10° S
Nadezhda 4 Rocket 4.3 18:36:47 10° N 18:42:32 41° E 18:48:14 10° SSE
NOSS 3-1 (C) 4.3 18:38:48 10° SSE 18:43:09 24° ESE 18:43:57 23° E
Cosmos 2034 Rocket 4.0 18:38:21 10° S 18:44:43 89° ESE 18:51:06 10° N
Cosmos 2151 Rocket 4.1 18:40:58 10° NNE 18:45:01 34° E 18:49:03 10° SSE
OAO 3 Rocket 3.6 18:41:40 10° W 18:46:29 55° NNW 18:48:44 30° NE
Meteor 2-20 4.4 18:41:09 10° N 18:47:08 59° E 18:53:04 10° SSE
Gblst 52 Del rocket 4.1 18:42:30 10° SW 18:47:59 88° NW 18:51:35 24° NE
SEDSat Delta rocket 3.9 18:44:53 10° SW 18:48:40 32° SSE 18:49:49 27° SE
MOS 1 4.2 18:43:08 10° SSE 18:48:49 83° ENE 18:54:32 10° NNW
Cosmos 2082 Rocket 2.1 18:44:45 10° NNW 18:50:27 88° ENE 18:56:04 10° SSE
Cosmos 1602 3.6 18:51:02 10° N 18:54:53 89° W 18:58:45 10° S
Cosmos 405 Rocket 4.2 18:51:35 10° SSW 18:55:08 36° W 18:58:38 10° NNW
Okean 2 Rocket 3.3 18:53:22 10° N 18:57:53 73° W 19:02:21 10° S
Centaur D AC-28 3.4 18:55:13 10° W 19:00:05 82° S 19:11:43 25° E
Timation 2 Rocket 4.4 18:54:37 10° N 19:00:52 41° ENE 19:03:17 30° ESE
Cosmos 1092 Rocket 4.3 18:55:54 10° NNE 19:01:40 41° E 19:07:27 10° SSE
USA 229 DEB 3.6 18:58:51 10° SSW 19:05:34 87° WNW 19:10:12 22° NNE
USA 229 3.6 18:58:57 10° SSW 19:05:41 88° WNW 19:10:15 23° NNE
Cosmos 1674 Rocket 3.4 19:01:56 10° S 19:06:17 66° E 19:07:04 54° NE
Cosmos 783 Rocket 4.4 19:03:02 10° N 19:08:21 69° ENE 19:13:36 10° SSE
NOSS 3-1 (A) 4.4 19:04:58 10° SSE 19:08:17 25° SE 19:08:17 25° SE
SPOT 3 Rocket 3.7 19:04:40 10° S 19:09:52 75° WSW 19:15:05 10° NNW
FengYun 1-2 T 4.3 19:08:23 10° SSE 19:14:01 49° ENE 19:19:00 10° N
ISS -2.8 19:12:48 10° SW 19:15:23 46° W 19:15:23 46° W
FENGYUN 3A 3.7 19:10:40 10° S 19:16:04 77° WSW 19:21:29 10° NNW
GPS 2-14 Rocket1 4.4 19:14:07 10° SW 19:17:26 23° S 19:17:47 23° S
Cosmos 44 Rocket 3.2 19:13:55 10° NNW 19:18:52 89° WSW 19:21:07 33° SSE
Cosmos 292 Rocket 4.3 19:17:48 10° NNW 19:22:27 56° WSW 19:27:06 10° S
Delta 7925 Rocket 4.5 19:22:41 10° SW 19:28:16 47° SSE 19:29:23 43° SE
OAO 3 Copernicus 4.3 19:23:26 10° WNW 19:28:29 71° SSW 19:28:50 68° S
Meteor 1-5 Rocket 3.9 19:24:18 10° N 19:29:37 83° E 19:34:55 10° S
Delta 168 4.1 19:32:41 10° WSW 19:37:42 60° S 19:38:19 57° SSE
Cosmos 44 4.1 19:33:18 10° NW 19:37:57 49° WSW 19:41:32 18° S
Cosmos 2369 Rocket 2.2 19:33:03 10° SSW 19:38:41 75° WNW 19:39:26 65° NNW
Cosmos 1777 Rocket 4.3 19:36:15 10° SSW 19:41:28 63° WNW 19:42:08 57° NW
ALOS 4.1 19:40:40 10° SSW 19:44:45 30° W 19:48:52 10° NW
Thor Agena Rocket 4.3 19:45:30 35° NNW 19:47:08 48° WNW 19:52:05 10° SSW
BREEZE-M R/B 4.3 19:49:29 10° WNW 19:53:17 48° SW 19:53:49 47° SSW
Cosmos 1943 Rocket 3.2 19:57:18 10° SSW 20:00:40 38° SSW 20:00:40 38° SSW
CZ-4C R/B 3.2 20:09:37 10° NW 20:17:08 65° WSW 20:18:12 60° SSW
